Find Local Weather

World > North America > United States > Kansas

Leavenworth, Kansas Regional Weather

Lat: 39.31N, Lon: 94.92W
Wx Zone: KSZ103
Warning FLW WEATHER ALERT - (More Info. Click Here) Warning
Feedback
Expires:201806201400;;829572
ASUS43 KEAX 201310
RWREAX

WEATHER ROUNDUP FOR EASTERN KANSAS AND NORTHWEST MISSOURI
NATIONAL WEATHER SERVICE KANSAS CITY/PLEASANT HILL MO
800 AM CDT WED JUN 20 2018


KSZ040-057-103>105-MOZ028-029-037-043-201400-
...KANSAS CITY METROPOLITAN AREA...
  
CITY           SKY/WX    TMP DP  RH WIND       PRES   REMARKS
K.C. INTL      CLOUDY    76  70  82 S13       29.81F                  
K.C. DOWNTOWN  CLOUDY    79  69  71 S15       29.80F                  
LEES SUMMIT    NOT AVBL                                               
OLATHE - IXD   CLOUDY    76  70  82 S13       29.83F                  
OLATHE - OJC   CLOUDY    75  70  84 S12       29.83F                  
LAWRENCE       PTSUNNY   78  71  79 S9        29.80F                  

$$
 

SKY/WX - Weather  TMP - Temperature  DP - Dewpoint  RH - Relative Humidity
WIND - Wind Direction/Speed PRES - Barometric Pressure